RH
91 103 99 100 100 97 95 92 92 94 94 92 91 90 90 91 92 93 94 96 98 99 98 95 94 93 92 94 95 93 92 92 92 92 90 83 75 70 64 58 53 51 50 51 54 61 67 76 88 93 94 98 98 93 89 83 77 70 62 56 52 51 51 47 41 36 37 40 43 48 54 56 58 63 67 73 81 85 84 81 80 81 82 83 84
101 101 99 100 99 97 94 90 86 86 86 86 86 87 86 85 86 87 90 92 95 96 98 99 100 100 100 101 101 98 94 94 95 95 91 84 73 66 62 59 57 56 59 68 79 86 86 85 88 90 90 91 93 97 99 99 99 95 88 81 75 72 71 66 58 51 51 56 60 64 69 75 79 85 88 91 97 101 100 99 99 99 99 99 99
100 100 101 100 100 101 99 97 94 91 89 88 87 86 83 80 79 78 80 83 85 86 89 92 95 96 98 100 101 101 99 97 98 98 98 94 88 82 76 71 69 71 77 84 90 90 88 88 89 91 92 93 96 99 101 103 104 102 100 98 93 91 92 88 79 72 71 73 76 79 83 87 89 92 98 101 102 102 101 101 101 100 100 100 100
94 94 95 95 96 96 95 96 98 98 97 97 96 94 90 86 83 81 80 81 81 81 81 83 86 88 90 91 92 94 93 92 90 90 91 93 93 93 90 87 86 89 93 95 96 96 97 98 99 99 100 101 101 101 101 103 103 101 101 101 98 98 100 96 90 85 82 80 84 90 93 93 94 97 101 101 101 102 102 101 101 101 102 101 101
75 74 77 80 82 84 85 85 85 86 87 89 93 97 98 98 98 96 93 90 88 88 87 87 88 88 90 92 94 95 94 91 89 88 89 90 92 94 97 97 97 98 99 99 99 100 100 100 100 102 103 103 103 103 103 102 101 100 100 100 100 100 99 97 95 93 88 86 90 97 98 99 101 102 101 101 102 102 101 100 100 100 100 99 100
53 55 58 62 65 72 77 78 78 77 75 76 80 85 89 92 96 98 99 98 96 95 95 96 97 97 97 97 98 100 100 99 98 98 98 98 97 98 99 100 101 101 101 102 102 102 102 102 103 102 102 101 99 98 97 95 94 94 95 97 98 97 94 92 92 90 86 85 87 91 94 96 96 95 96 98 97 96 96 95 94 94 94 96 98
35 36 38 40 44 50 55 58 61 62 63 67 70 73 75 76 78 81 83 87 90 91 93 95 96 98 99 100 100 100 100 100 100 100 100 100 100 100 100 100 100 99 98 98 97 97 97 96 95 93 91 90 90 89 86 85 84 86 88 91 90 86 84 84 84 83 81 81 80 81 82 82 81 83 88 92 90 91 95 94 91 91 95 96 96
23 23 23 25 25 27 30 33 37 39 42 46 48 50 53 54 55 58 60 63 67 71 76 81 84 88 92 94 96 97 97 97 95 93 91 90 90 90 91 90 88 87 86 85 84 85 85 85 84 82 80 80 81 80 79 78 77 76 78 79 77 75 77 80 82 82 82 81 80 80 80 77 76 80 85 87 86 88 90 88 86 87 88 87 84
17 18 19 19 19 18 18 18 20 22 25 28 30 32 34 35 36 38 39 41 43 45 49 52 56 61 66 72 76 79 83 85 84 82 80 78 77 76 75 74 72 71 71 71 71 72 72 71 70 70 70 70 71 71 71 70 67 66 68 68 67 68 70 73 74 75 76 76 75 76 75 71 72 75 76 75 76 76 75 73 71 70 69 66 63
8 10 12 15 17 19 19 18 17 16 15 15 16 18 20 22 24 25 26 27 28 28 29 29 30 32 34 37 40 43 47 51 53 56 57 59 59 59 59 59 58 58 58 58 60 62 62 61 60 61 62 62 64 65 65 64 63 63 64 64 63 62 60 59 59 60 61 60 60 60 59 58 59 60 58 58 58 57 55 53 51 50 47 45 43
4 5 5 6 8 11 14 18 20 21 21 20 17 15 14 13 13 14 15 16 16 17 17 17 18 18 18 18 19 19 20 21 22 25 26 28 30 31 33 34 34 35 36 37 40 42 44 45 47 50 53 56 60 61 61 62 62 62 63 63 61 58 55 51 48 46 45 44 44 43 42 42 43 43 42 42 42 40 40 39 38 38 37 35 35
4 4 4 4 4 5 6 8 11 15 19 23 24 24 22 19 17 15 13 12 11 11 12 12 12 12 13 14 14 15 15 15 15 15 15 15 16 16 16 17 17 18 18 19 20 22 23 24 26 28 32 37 41 44 48 53 55 57 58 59 59 58 55 51 46 42 39 38 36 35 34 34 34 34 33 33 33 35 36 35 35 35 34 32 32
4 5 5 5 5 5 5 5 5 7 9 12 16 20 22 24 23 22 20 19 18 16 15 15 15 16 16 17 18 18 17 16 15 14 14 13 12 12 12 12 12 12 12 13 13 15 16 17 19 20 22 23 24 26 29 32 35 38 41 45 49 50 49 47 45 41 38 35 32 31 32 31 30 30 31 32 34 35 36 36 35 33 32 33 35
6 7 7 7 7 7 6 6 5 5 5 6 7 9 12 15 17 19 20 20 19 19 18 18 17 16 16 15 16 16 15 14 13 12 12 11 11 10 10 10 11 10 10 10 10 10 10 11 12 15 17 20 21 23 24 24 24 25 26 29 33 36 37 37 36 33 31 30 29 30 31 30 30 31 33 33 34 35 35 35 35 35 35 37 38
6 8 8 9 9 9 9 8 7 7 6 5 6 5 6 7 8 10 12 14 14 14 14 14 13 13 12 12 11 11 10 9 9 8 8 8 8 8 7 8 9 9 9 9 9 9 8 8 8 8 9 11 13 16 19 22 23 24 25 26 27 27 28 29 30 30 30 29 29 30 32 32 31 32 33 34 35 36 37 38 39 40 42 42 43
6 8 9 10 11 11 12 12 10 9 8 7 6 6 5 5 5 5 6 8 10 12 13 13 13 12 11 12 12 11 10 8 7 7 7 7 7 7 8 8 9 9 9 8 8 8 7 7 7 7 7 7 8 8 10 12 16 20 25 29 31 31 32 31 30 30 30 30 30 30 30 32 33 34 36 38 41 42 43 44 45 46 48 49 51
6 8 9 10 11 11 12 12 12 12 12 11 10 9 8 6 5 5 5 4 4 6 9 12 14 15 15 14 13 12 10 8 7 6 6 6 6 6 7 7 7 8 8 8 8 8 9 10 10 11 12 13 13 13 11 10 9 10 13 18 24 30 37 40 39 35 33 31 31 32 33 35 39 42 43 44 47 49 48 49 51 53 53 54 57
6 8 9 10 12 14 17 19 22 24 25 23 21 20 19 18 15 12 11 11 11 11 10 11 12 12 12 12 11 12 13 15 17 19 20 20 20 20 20 19 19 20 21 20 21 23 23 21 19 18 19 19 20 20 20 19 19 17 15 13 13 16 24 32 36 40 43 42 40 41 42 44 47 49 50 51 52 52 54 55 57 58 57 59 64
5 6 7 9 12 18 26 35 40 42 38 31 26 25 30 39 46 50 53 53 51 47 43 40 39 38 38 40 41 44 47 50 52 54 54 54 53 52 49 47 45 46 46 47 49 50 50 48 46 44 42 41 39 38 35 32 30 30 28 25 21 19 18 17 19 26 36 44 50 51 51 52 54 55 55 56 57 58 59 60 60 60 62 66 67
6 6 6 7 9 14 23 35 42 45 42 37 32 29 30 37 52 68 79 83 79 74 72 73 76 79 82 82 79 76 74 73 71 69 66 63 60 57 53 49 47 46 46 46 48 49 51 53 55 56 57 60 63 67 70 71 69 64 57 49 44 38 30 24 21 21 23 30 42 54 61 60 59 61 63 62 62 62 61 60 62 64 65 65 61
7 6 6 6 7 9 12 18 23 27 30 30 31 30 29 29 33 42 53 60 65 69 74 81 87 93 95 91 82 71 61 55 51 48 47 45 43 41 39 39 38 38 40 42 43 44 45 45 46 45 45 47 50 56 66 77 87 94 95 90 81 68 54 45 39 34 28 26 31 46 62 67 67 69 71 66 62 61 60 61 63 64 62 61 62
9 8 8 7 7 7 7 8 9 11 13 14 16 18 20 21 22 24 27 31 36 43 51 61 70 79 85 87 83 75 65 55 46 40 37 34 33 32 31 31 31 33 38 43 46 48 49 49 49 48 46 46 47 47 49 54 62 73 86 97 102 98 89 77 65 54 44 34 28 35 51 66 73 74 71 66 61 59 59 61 64 65 68 72 81
11 10 9 9 8 8 8 8 8 7 7 8 8 8 9 10 11 12 14 15 18 20 24 30 37 46 56 65 73 77 76 72 65 56 48 40 35 32 31 31 31 33 38 45 50 53 53 53 53 54 55 55 55 55 56 56 58 62 68 74 83 94 102 100 92 82 66 47 33 28 36 51 65 69 66 61 58 58 63 70 76 79 85 92 97
13 12 12 11 10 10 10 9 9 9 9 9 8 8 8 8 8 8 8 8 9 9 10 11 13 17 23 31 41 52 62 68 72 71 66 58 50 42 36 34 35 37 41 47 55 61 62 61 61 60 61 60 58 57 57 59 62 69 75 76 73 78 91 100 102 100 89 68 46 31 30 41 52 57 56 54 58 68 79 86 90 93 98 99 96
14 13 14 13 13 12 12 12 11 11 11 11 11 11 11 10 10 9 9 9 8 8 8 7 7 7 8 10 13 20 30 41 53 63 69 71 69 62 52 43 38 39 41 46 57 66 69 68 66 64 62 59 57 56 59 62 65 71 83 94 90 82 80 85 94 101 101 90 69 47 36 39 45 48 54 63 75 87 94 97 98 99 98 94 89
15 15 15 15 15 15 15 15 14 14 14 14 14 13 13 13 13 12 11 11 10 9 8 8 7 6 6 6 6 7 9 14 24 37 51 64 74 76 71 60 48 41 41 45 54 66 72 72 70 68 65 62 59 59 60 65 73 80 89 101 106 98 84 76 82 94 101 101 93 75 60 58 63 69 79 88 94 98 100 100 98 95 89 85 83
15 16 16 16 16 16 17 17 17 17 17 17 17 17 16 16 15 15 15 13 12 11 9 8 7 6 6 6 5 5 5 5 7 13 24 42 60 72 76 71 60 48 43 43 50 61 72 76 76 74 72 69 68 68 66 68 81 94 98 99 102 105 96 82 79 91 100 101 100 96 91 91 93 95 97 99 99 99 98 96 92 88 84 81 79
14 15 16 17 17 17 18 18 18 18 18 18 19 19 19 19 18 17 16 15 14 13 11 9 8 7 6 5 5 5 5 5 5 5 8 19 38 58 71 72 63 52 45 43 46 55 68 78 81 81 81 80 78 79 78 77 87 99 102 99 101 106 101 89 84 93 100 100 100 101 100 99 99 99 100 100 98 96 93 90 89 87 82 76 70
14 15 16 17 18 19 19 19 20 20 20 19 19 19 19 19 19 18 17 17 16 16 14 12 10 7 6 5 5 5 4 4 5 5 4 6 17 38 62 71 63 51 45 46 50 55 63 74 82 84 87 88 87 88 90 88 89 95 97 97 97 97 93 89 90 97 101 100 100 100 99 100 101 100 99 96 93 91 90 91 88 81 73 64 56
13 14 15 16 18 19 20 21 21 22 22 22 22 21 20 19 18 18 18 19 19 19 17 15 12 9 7 5 4 4 5 5 5 5 5 5 6 20 49 71 68 53 47 54 63 65 64 69 77 83 88 91 92 93 98 98 96 95 95 94 94 94 94 96 99 101 100 99 100 101 101 100 98 95 92 91 91 92 91 86 77 66 57 49 43
13 14 15 16 17 18 20 21 22 23 24 25 25 25 24 23 21 19 19 20 21 21 20 18 15 11 7 6 5 4 4 5 6 5 5 6 4 8 32 65 75 61 53 63 77 79 71 66 69 75 83 91 92 90 92 97 99 100 100 100 99 99 100 101 100 100 100 101 101 99 96 94 92 92 94 94 93 89 81 70 59 50 44 40 37
15 14 14 16 17 18 19 21 22 24 25 26 27 28 28 27 26 23 22 22 22 22 22 20 17 13 9 6 5 5 5 5 7 7 5 6 6 4 19 55 78 71 61 69 83 89 83 71 64 67 74 81 86 87 88 90 94 96 98 100 100 100 101 101 101 100 99 97 95 93 93 94 96 97 96 91 82 72 61 52 46 42 39 36 35
16 15 15 15 16 18 19 20 21 23 25 26 28 30 30 30 29 26 25 24 25 24 22 20 18 15 11 7 5 5 6 5 7 8 5 5 7 3 11 45 78 80 71 75 85 91 90 80 66 61 64 68 73 79 83 87 92 96 98 99 99 99 99 98 97 96 94 94 96 98 99 100 99 94 85 73 61 53 47 43 41 38 36 35 35
18 16 15 16 16 17 19 20 21 23 24 26 28 31 32 33 32 29 27 27 28 28 25 21 20 16 12 8 5 5 6 6 7 8 6 4 7 4 6 36 75 87 80 81 85 87 90 86 72 60 58 59 62 66 71 76 82 86 90 93 94 94 95 96 96 97 99 101 103 103 101 96 86 74 62 53 47 45 43 40 38 36 36 36 37
19 18 17 17 17 18 19 20 22 24 24 26 28 30 33 35 35 33 31 28 28 29 26 22 20 18 13 9 6 5 6 6 6 8 7 4 6 5 5 31 74 93 89 86 86 84 86 86 79 70 63 58 56 60 65 71 76 81 86 93 98 99 100 101 101 101 102 103 101 95 85 74 62 53 49 47 45 42 40 38 37 37 38 38 39
19 20 20 18 18 19 20 21 22 24 25 27 28 30 33 36 37 36 35 31 29 30 27 23 21 19 15 10 6 5 6 6 6 8 7 4 6 5 5 30 74 98 94 87 86 84 85 87 88 85 79 71 67 72 78 84 89 92 96 100 103 103 102 102 101 101 98 92 83 71 60 52 49 49 48 45 42 40 39 39 39 39 39 40 41
23 21 22 22 21 21 22 22 23 25 26 28 30 30 32 36 38 38 37 34 32 32 30 25 23 21 17 11 6 5 6 6 6 8 7 5 6 5 5 32 77 102 98 91 90 88 88 91 94 95 94 89 86 88 90 92 96 99 100 101 101 101 101 98 93 87 78 67 57 52 50 50 51 49 46 42 41 40 40 40 40 40 41 42 43
31 23 24 25 25 25 25 25 25 27 28 29 31 32 33 37 40 41 40 37 35 35 32 26 23 22 19 12 7 5 6 5 6 8 7 5 7 5 6 35 81 104 100 98 101 97 93 95 98 98 97 94 91 90 91 93 97 99 99 99 98 93 88 80 70 62 55 51 50 52 53 52 49 46 45 43 42 41 41 41 42 42 43 43 44
44 30 27 29 29 28 29 29 29 30 31 32 33 34 36 38 41 43 42 39 37 36 34 29 24 22 19 13 7 5 6 5 5 8 7 6 7 4 8 40 86 106 101 99 104 103 100 101 101 99 97 95 92 91 90 89 90 90 91 90 84 74 65 58 53 51 50 52 55 55 53 50 49 48 47 46 43 43 43 43 43 44 44 45 45
57 39 32 32 33 32 32 32 32 33 34 35 36 37 38 41 43 44 44 42 39 38 35 30 25 23 20 14 7 5 6 6 6 8 8 7 7 4 10 45 89 105 100 98 102 102 102 103 102 102 101 98 94 92 88 83 79 76 74 71 64 57 54 52 51 53 56 57 58 56 53 51 51 50 49 48 46 45 45 44 45 47 47 46 45
66 48 39 37 37 37 36 36 36 36 37 38 40 40 41 43 45 46 46 44 42 40 37 31 26 24 21 14 7 5 6 5 6 7 7 8 9 4 11 47 90 104 99 99 101 100 100 101 100 102 104 101 97 95 89 80 72 65 60 58 56 53 54 56 57 60 62 62 60 57 54 54 55 53 51 50 48 47 48 47 47 48 47 46 47
73 56 46 43 42 42 42 41 41 41 41 42 43 44 46 47 48 49 48 46 44 42 39 32 27 25 23 14 7 6 6 5 6 8 7 9 10 5 10 47 90 104 100 99 101 99 100 100 100 101 103 102 101 97 86 75 67 61 56 56 57 58 60 63 64 66 67 65 63 61 59 59 59 56 53 53 52 51 50 48 47 47 48 48 48
79 65 54 49 48 48 48 48 48 47 47 47 48 48 50 51 52 52 51 49 47 45 40 33 28 26 23 14 6 5 6 5 5 7 8 10 12 6 9 43 88 106 102 99 100 99 99 100 100 100 101 102 100 93 80 68 64 63 60 60 61 64 68 70 70 71 72 70 68 66 64 62 61 58 57 57 56 54 52 49 48 49 50 50 50
86 73 61 55 55 56 55 55 55 54 53 53 52 52 54 55 55 56 54 51 50 48 42 33 29 27 22 13 6 6 6 5 5 8 8 11 14 9 7 35 82 107 105 101 101 100 99 101 101 99 100 102 99 88 75 67 66 66 66 66 67 70 74 76 76 76 77 75 73 71 69 66 64 62 62 62 61 58 55 52 50 50 51 51 51
90 80 69 62 62 63 63 63 63 61 60 59 57 57 58 59 59 59 58 54 52 51 43 34 30 28 20 11 6 6 6 5 6 8 9 12 17 13 7 26 70 102 106 103 103 101 97 99 101 99 99 102 100 89 76 70 70 71 72 73 75 76 77 79 80 82 82 81 79 76 74 71 69 68 67 67 65 62 58 55 53 53 52 52 51
94 86 77 70 69 71 71 71 70 68 66 65 63 62 64 64 63 63 61 57 55 52 43 35 32 28 18 9 6 6 6 5 6 7 9 14 19 17 9 17 53 90 105 104 103 103 99 98 100 100 99 100 101 95 84 75 73 75 76 77 80 83 83 83 85 86 87 87 87 85 83 80 77 75 74 72 70 67 64 61 59 56 54 53 52
98 93 85 78 76 78 79 79 78 74 71 70 69 69 69 69 69 67 63 60 58 53 43 36 34 27 16 8 7 6 6 6 6 7 10 15 20 21 14 11 32 69 97 103 102 103 103 101 99 99 100 100 101 100 94 86 80 79 80 81 84 87 89 90 91 92 93 93 93 93 93 90 86 84 82 79 76 73 69 66 64 61 58 56 53
100 98 94 88 85 86 87 85 82 80 77 76 76 75 75 75 73 70 67 64 60 53 43 38 35 26 14 8 8 7 6 7 7 7 11 17 21 23 20 13 16 39 73 96 102 102 102 104 103 100 98 98 99 101 101 97 92 88 86 86 88 90 93 95 96 97 97 97 96 97 99 98 95 93 90 86 83 80 76 72 70 66 61 58 55
101 100 99 95 93 93 93 90 87 85 84 83 83 82 81 80 77 73 70 67 62 53 44 40 35 24 13 8 8 7 6 8 8 8 12 19 23 23 23 19 14 19 41 71 95 102 101 102 105 104 99 95 95 98 101 102 101 98 95 93 93 94 97 99 100 100 100 101 101 101 103 103 101 99 97 95 92 88 84 80 77 71 65 60 56
101 101 101 100 99 98 97 94 92 90 89 89 89 89 87 84 80 77 74 70 63 53 46 41 34 22 13 10 9 7 7 10 10 10 14 21 26 25 23 22 20 16 21 41 71 94 102 100 101 103 103 100 96 97 99 100 101 102 102 100 99 99 100 102 102 102 101 102 103 102 102 102 101 100 100 100 99 95 92 88 84 78 71 63 57
100 101 102 102 102 102 101 98 95 93 92 92 94 95 92 89 84 80 76 72 63 53 47 42 33 21 13 11 10 8 9 11 11 12 16 22 27 28 26 23 22 21 19 23 42 70 93 102 100 100 103 105 104 102 100 99 99 100 102 102 103 103 103 103 103 102 101 101 101 101 101 101 100 98 98 98 98 97 96 95 91 85 77 67 59
Wind_Speed
19 18 18 20 22 23 24 25 27 28 29 28 28 27 28 28 29 30 31 34 38 43 47 50 52 53 53 52 51 49 46 45 45 46 47 48 48 48 48 49 49 50 51 52 53 54 54 53 52 52 54 55 56 59 60 61 62 62 61 61 60 60 61 61 61 59 59 60 61 61 62 62 62 61 61 61 62 62 63 64 65 65 66 67 68
15 15 14 15 16 19 21 22 24 25 26 27 27 27 27 27 27 27 28 29 30 34 37 41 44 47 48 49 49 48 47 46 45 44 45 46 47 47 48 49 50 50 51 52 52 53 53 53 54 55 56 56 57 59 61 61 62 62 62 62 62 62 62 63 62 61 61 61 62 62 62 62 61 61 61 61 61 61 61 61 62 62 63 63 64
11 13 13 12 12 13 16 18 19 21 23 25 26 27 27 27 28 28 28 28 28 29 31 33 35 37 39 41 43 44 45 45 45 44 44 45 47 48 49 50 50 50 50 51 53 54 54 55 56 57 58 59 61 62 61 59 58 58 58 58 59 59 60 60 59 58 58 57 57 57 56 56 56 55 55 55 55 56 55 55 55 55 56 56 56
9 11 13 13 13 13 13 14 16 18 20 22 23 24 25 26 26 27 27 28 28 29 29 30 31 32 33 34 36 37 39 41 42 42 42 43 45 47 49 49 50 51 52 53 54 56 56 57 58 60 61 61 61 60 58 56 54 54 54 54 54 55 55 56 55 55 54 54 54 54 54 53 53 52 52 53 53 54 54 54 54 54 54 54 54
10 11 13 15 15 15 15 15 16 18 19 20 21 22 23 24 25 26 27 28 29 29 30 31 32 33 33 33 33 33 35 36 38 40 41 43 45 47 48 50 51 52 53 54 55 56 57 57 58 59 59 58 57 56 55 54 54 54 53 53 53 54 54 55 55 55 55 55 55 56 56 56 56 55 56 56 56 56 56 56 56 56 55 55 56
11 13 14 15 16 17 18 18 19 20 21 22 22 23 24 24 25 26 27 28 29 30 31 32 33 33 34 35 35 35 36 37 38 40 42 43 45 46 47 49 50 51 51 51 52 52 53 53 54 54 54 54 54 54 54 54 54 54 53 53 53 54 54 54 55 55 55 55 55 55 56 56 57 57 57 57 57 56 56 56 56 56 56 56 56
12 14 15 16 17 18 19 20 21 22 23 24 25 25 26 26 27 27 28 29 29 30 31 32 33 34 35 36 37 38 38 39 40 41 42 43 43 44 45 46 47 48 48 49 49 50 50 51 51 52 52 52 53 53 53 53 53 53 53 53 53 53 54 54 54 54 54 53 53 54 54 54 54 55 55 55 55 54 54 54 55 55 55 56 56
14 14 15 16 17 18 18 19 20 21 23 24 25 26 27 27 28 29 30 31 31 32 32 33 34 35 35 36 37 38 39 40 41 42 42 43 43 43 44 45 45 47 48 48 49 49 50 50 51 52 52 52 53 53 54 54 54 54 54 55 55 55 55 54 54 54 53 53 52 52 53 53 53 53 53 52 52 52 53 54 54 54 55 55 56
18 17 18 18 19 19 19 19 19 20 21 22 24 25 26 27 28 29 30 31 32 32 33 34 35 36 37 37 38 39 40 41 42 43 43 44 44 45 46 46 47 48 48 49 50 51 51 52 52 53 54 54 55 55 55 56 56 56 56 57 56 56 55 55 55 54 53 52 52 52 53 53 52 52 52 52 52 52 53 53 53 54 55 55 55
22 21 21 22 22 23 23 23 22 22 22 22 22 23 24 25 27 28 29 29 30 31 31 32 33 34 35 36 37 38 39 41 42 43 44 46 46 47 48 49 49 50 51 52 52 53 54 55 55 56 56 57 57 58 58 58 58 58 58 58 57 57 56 56 55 54 54 53 53 53 53 52 52 52 52 52 53 53 54 54 54 54 54 54 54
25 24 24 24 24 25 26 26 26 26 26 25 25 24 24 25 25 26 27 28 28 29 29 30 30 31 32 33 34 35 36 37 39 40 42 44 46 47 48 50 51 51 52 53 54 55 56 57 58 59 59 60 60 61 61 61 61 61 60 60 59 59 58 57 57 56 56 55 55 54 54 53 53 54 53 53 54 54 54 53 53 53 53 52 52
28 27 26 26 26 26 27 27 27 28 29 29 29 29 28 28 28 28 28 28 29 29 29 30 30 31 32 32 34 35 36 37 38 39 40 42 44 45 47 48 49 50 52 53 54 55 56 57 58 59 61 62 62 63 63 64 63 63 63 62 62 61 61 60 59 59 58 57 57 56 55 55 55 55 54 54 53 53 52 51 51 51 51 51 51
28 27 26 26 26 27 27 27 28 28 28 29 30 31 31 31 31 31 31 32 32 33 33 34 34 35 36 37 38 39 41 42 42 43 44 44 45 46 47 48 49 50 51 52 54 55 56 57 58 59 60 62 62 63 64 64 64 64 64 63 63 63 62 62 61 61 60 59 58 57 57 56 55 54 54 52 51 50 50 50 50 50 51 51 52
29 27 26 25 24 25 26 26 27 27 28 28 29 30 31 32 32 33 33 34 35 35 36 37 39 39 40 41 42 43 44 44 46 47 48 48 49 49 50 51 52 53 54 54 55 56 57 57 58 59 61 62 62 63 63 63 63 63 63 63 62 63 62 62 62 61 60 59 58 56 56 56 54 53 52 51 50 50 50 50 51 51 51 51 52
31 28 27 25 24 24 23 24 24 25 26 27 28 29 30 31 31 32 33 33 34 35 36 36 38 38 39 40 40 42 42 44 45 47 48 49 51 51 52 53 53 55 56 56 57 58 58 59 59 60 61 62 63 63 63 63 63 63 62 62 62 62 61 61 60 59 58 57 56 55 55 54 52 51 51 50 50 51 51 51 51 51 51 52 53
33 29 28 26 24 23 23 22 22 22 23 24 25 27 28 29 30 31 32 33 33 34 35 35 36 36 37 38 39 41 42 43 45 47 48 50 51 52 53 53 54 55 56 56 57 58 59 59 60 60 61 61 61 62 62 63 63 63 62 62 62 61 60 59 59 57 57 56 55 54 53 53 52 51 51 51 51 51 51 51 51 52 52 53 54
35 31 28 26 25 23 22 21 21 20 21 22 23 24 25 25 26 28 29 30 31 33 34 35 36 37 38 39 40 41 43 44 46 47 49 49 50 51 52 52 53 54 54 55 55 56 57 57 57 58 58 58 59 59 60 60 60 61 61 61 61 61 60 59 58 57 57 56 55 54 53 53 52 52 51 51 51 51 51 51 52 53 53 54 55
37 33 29 27 25 24 22 22 21 21 21 23 24 25 24 24 24 24 25 26 28 29 31 32 34 35 37 38 40 41 42 43 44 45 46 46 47 47 48 48 49 50 51 51 52 52 53 53 54 54 55 56 56 57 57 57 57 58 59 60 60 60 60 60 59 58 57 56 55 55 54 53 52 52 51 51 51 51 52 52 53 54 54 55 55
38 36 32 29 27 25 24 23 22 22 22 23 24 25 25 25 24 24 24 25 26 27 28 30 31 33 34 36 37 38 39 39 39 40 40 41 41 42 42 43 43 44 45 46 47 48 50 51 52 53 53 55 56 56 57 57 57 57 57 58 58 59 60 60 59 58 57 57 56 54 53 52 52 51 51 51 51 52 52 53 54 55 54 55 55
38 38 36 33 30 27 25 24 22 22 22 23 24 25 26 25 25 24 24 25 25 26 27 27 28 29 30 31 31 32 33 33 33 34 35 36 36 37 37 38 39 40 41 42 43 45 46 48 49 51 52 53 54 55 56 57 57 57 58 57 58 58 58 58 58 58 57 56 55 54 53 52 52 51 51 52 52 53 53 54 54 54 54 54 55
36 37 37 36 33 30 27 26 24 24 24 24 25 26 27 27 26 25 25 25 26 26 27 27 26 26 26 27 28 29 29 30 30 30 31 32 33 33 34 35 36 37 38 40 41 42 44 45 47 48 49 50 51 52 53 54 55 56 57 57 57 58 57 56 56 56 56 56 55 54 53 52 52 51 52 52 53 53 53 53 53 53 54 55 56
34 35 35 35 33 32 30 29 28 27 26 26 26 26 27 27 28 27 27 27 28 28 28 28 27 27 26 26 27 29 30 30 31 31 31 31 32 32 33 34 35 36 37 38 40 40 41 42 44 45 46 47 48 49 50 51 52 52 54 55 55 56 55 55 55 54 54 53 53 54 54 53 52 52 52 52 52 52 52 52 52 53 54 55 55
30 32 32 32 32 31 31 30 29 29 28 28 27 27 28 28 28 28 28 29 29 29 30 30 30 30 29 29 29 29 30 31 31 32 33 33 33 33 34 35 36 37 37 38 38 39 40 40 41 43 44 46 47 49 50 51 51 51 52 52 53 52 52 53 53 53 52 51 51 52 53 52 52 52 52 52 51 51 51 51 52 53 53 52 51
27 28 29 30 30 30 29 29 29 28 28 28 28 28 29 29 29 30 30 30 30 31 32 32 33 33 33 33 32 32 32 32 32 33 33 34 34 35 35 35 36 36 37 37 37 37 38 39 40 41 43 45 46 48 49 51 52 52 52 51 50 50 50 50 50 51 50 49 49 49 50 50 51 51 50 50 49 50 50 51 51 50 49 48 47
25 26 27 28 28 28 28 28 28 28 28 28 29 29 29 29 30 31 31 32 32 33 33 34 35 35 36 37 37 36 35 35 35 34 34 34 34 35 35 36 36 36 37 36 36 35 36 37 38 40 41 42 44 45 46 48 50 51 51 50 48 47 46 47 47 47 47 47 47 47 47 48 48 48 48 48 48 49 49 49 47 45 44 44 45
24 25 25 26 26 27 28 28 28 28 28 29 30 30 31 31 32 33 33 34 35 35 36 37 38 38 39 40 41 40 40 39 38 37 36 36 35 34 34 35 35 36 36 36 35 34 34 35 37 38 38 39 39 40 41 42 44 45 45 45 44 43 42 42 43 43 43 44 45 45 45 45 45 46 46 46 46 46 45 43 42 41 41 41 39
24 24 24 25 26 26 27 28 28 29 29 30 31 32 33 33 34 35 35 36 37 38 39 40 41 42 43 44 45 45 44 42 41 39 38 37 36 35 34 34 34 35 35 35 34 33 33 33 34 35 35 35 35 35 35 36 36 37 37 37 37 38 38 38 38 38 38 39 40 41 42 42 43 43 42 42 41 40 39 38 37 37 37 36 34
24 24 24 24 25 26 27 28 29 29 30 31 32 33 34 35 36 36 37 38 39 41 42 43 44 45 47 48 50 50 48 45 42 41 39 38 37 36 34 33 33 33 34 34 33 32 31 31 32 32 32 32 31 30 30 29 29 28 29 30 31 32 33 33 33 34 34 34 34 35 35 36 36 36 36 35 35 34 34 34 33 33 32 32 31
25 25 25 25 25 25 26 28 29 30 31 32 33 34 35 36 37 38 39 40 42 43 44 46 47 48 50 53 54 55 53 48 42 40 39 38 37 35 34 33 32 32 32 32 31 30 30 29 29 29 29 28 27 26 25 24 22 21 21 22 24 25 26 27 27 28 29 28 28 29 30 30 31 31 31 31 31 30 30 30 30 30 30 30 30
26 26 26 26 26 26 27 28 29 30 32 33 34 35 36 37 39 40 41 43 44 46 47 48 50 51 53 56 58 59 57 51 43 38 37 37 36 35 33 32 31 31 31 30 30 29 28 28 28 27 26 25 24 22 21 20 18 16 16 16 18 19 20 21 22 24 25 26 26 27 27 27 27 27 27 27 27 27 27 27 28 28 29 29 29
27 27 27 27 27 27 28 28 29 30 32 33 35 36 38 39 40 41 43 44 46 48 49 51 52 53 55 58 60 61 58 52 45 39 36 34 34 33 32 30 29 29 29 29 28 28 27 26 26 25 24 23 21 20 18 17 15 14 13 13 14 16 18 19 21 22 23 24 23 23 23 24 24 24 24 24 24 24 25 25 26 27 27 28 28
28 28 29 29 29 29 29 29 30 31 32 33 35 36 38 40 41 42 44 45 47 49 51 52 53 55 57 59 61 62 58 52 46 41 36 34 33 32 31 29 28 27 28 28 28 27 26 25 25 24 22 21 19 18 16 15 14 13 12 12 13 14 16 17 19 20 20 20 20 21 21 21 22 21 22 22 22 23 24 25 25 26 26 26 27
30 30 30 30 30 30 30 31 31 31 32 34 35 37 38 40 42 43 44 46 48 50 52 53 54 55 57 59 62 62 59 52 47 43 38 34 32 31 30 28 27 26 26 27 27 27 26 24 24 23 22 21 19 17 16 15 13 13 12 13 13 14 15 16 17 18 18 19 19 19 19 19 19 19 20 21 22 23 23 24 24 24 25 26 27
32 32 32 31 31 31 31 32 32 32 33 34 36 37 39 41 42 44 45 46 48 51 53 55 55 56 58 60 62 63 60 54 48 44 40 34 31 29 28 28 26 25 25 26 26 26 24 23 22 23 22 21 20 19 17 16 15 15 14 14 15 15 15 16 16 17 17 17 17 17 17 17 18 19 20 21 21 22 22 23 23 24 25 26 28
34 33 33 33 32 32 32 33 33 33 34 35 36 38 39 41 43 44 46 47 48 51 54 56 56 56 58 60 62 63 61 55 50 46 41 36 31 28 27 27 26 25 24 24 25 24 22 21 20 21 21 21 20 19 19 18 17 17 16 15 15 15 15 15 15 15 15 15 15 16 16 17 18 19 19 20 21 21 21 22 22 23 25 26 28
35 34 34 33 33 33 33 33 34 34 35 36 37 38 40 41 43 45 46 48 49 51 53 56 57 57 58 60 62 63 61 56 51 47 43 37 32 28 26 26 26 25 23 22 22 21 20 19 19 19 19 19 18 18 17 17 16 15 15 14 14 14 14 14 14 14 14 15 15 15 16 17 18 19 20 20 20 20 20 21 22 24 25 26 28
36 35 35 34 33 33 34 34 34 35 35 36 37 38 40 41 43 45 46 47 49 51 53 55 57 57 58 60 61 62 62 58 52 48 45 39 33 28 26 26 26 24 21 19 19 19 19 18 18 18 17 17 16 15 14 13 13 13 13 13 13 14 14 14 14 14 14 15 15 16 17 18 19 19 19 19 19 20 20 21 23 24 25 27 28
36 36 35 35 34 34 34 34 35 35 36 36 37 38 40 41 43 45 46 47 49 51 53 55 57 57 57 59 60 62 62 59 53 49 45 40 34 28 25 25 26 23 19 17 17 17 17 16 16 15 14 13 12 12 11 11 12 12 13 14 14 15 15 15 15 15 15 15 16 17 18 19 19 19 19 19 19 20 21 22 23 24 25 27 28
36 36 36 35 34 34 35 35 35 35 36 36 37 38 39 41 43 44 46 47 49 50 52 55 56 57 57 58 59 61 61 59 54 49 45 41 35 29 25 25 25 22 18 16 15 15 14 13 13 12 11 11 11 12 12 13 13 14 14 15 16 16 16 15 15 15 16 17 18 18 19 19 19 19 19 19 20 20 21 22 23 25 26 27 29
36 36 36 35 35 35 35 35 35 35 36 36 37 38 39 41 43 44 46 47 48 50 52 55 56 57 57 58 59 60 61 60 55 49 45 41 36 29 26 25 25 21 17 15 14 14 12 12 11 11 11 12 13 14 14 14 14 15 15 16 16 15 15 16 16 17 18 18 19 19 19 19 19 19 19 19 20 21 22 23 24 25 27 28 29
36 36 36 35 35 35 35 35 35 35 36 36 37 38 39 41 43 44 46 47 48 51 53 54 56 57 57 58 59 60 60 60 56 49 44 41 37 30 25 25 25 22 17 15 14 13 12 11 11 11 12 13 14 15 16 15 15 15 15 15 15 15 16 16 17 18 18 19 19 19 19 19 19 19 19 20 21 21 22 24 25 26 27 28 29
35 35 35 35 35 35 35 35 35 36 36 37 37 38 39 41 42 44 45 47 48 51 52 54 56 57 57 58 59 60 61 60 56 49 43 40 37 31 25 24 24 23 19 16 14 13 12 11 11 11 13 15 16 16 17 16 16 15 14 15 15 16 16 17 17 18 18 18 19 19 19 19 19 19 20 20 21 22 23 24 25 26 27 29 30
35 35 34 34 34 34 35 35 35 36 36 37 37 38 39 41 42 44 45 46 48 51 52 54 55 57 57 58 59 60 61 60 57 49 42 38 36 31 25 23 24 23 21 18 16 14 12 11 11 12 14 16 17 17 17 17 17 16 16 15 16 16 16 16 17 17 18 18 19 19 19 19 19 19 20 21 21 22 23 24 26 27 28 29 30
34 34 34 34 34 34 34 35 35 36 36 37 37 38 39 41 42 43 45 46 48 50 52 53 55 56 57 58 59 61 62 61 57 48 40 36 35 31 26 22 23 23 22 20 18 15 14 12 12 13 15 17 18 17 17 17 18 18 17 17 16 16 16 16 17 17 18 18 18 19 19 19 19 19 20 20 21 22 23 24 26 27 28 29 31
34 34 34 34 33 34 34 34 35 36 36 37 38 39 40 40 41 43 44 46 48 50 52 53 54 55 56 57 59 61 62 61 57 48 39 34 34 32 26 22 22 22 22 21 20 18 16 14 13 14 16 17 18 18 17 18 18 18 19 19 18 17 17 17 17 18 19 18 19 19 19 19 19 19 20 21 21 22 23 24 26 27 29 30 31
34 34 34 34 34 34 34 35 35 36 36 37 38 38 39 40 41 42 44 46 48 50 52 53 54 55 55 57 59 61 62 61 57 48 38 33 33 32 28 23 21 21 22 22 22 20 19 17 16 15 16 17 18 18 18 18 19 19 20 20 19 19 18 18 18 19 19 19 19 19 19 19 20 20 21 21 22 23 24 25 26 27 29 30 31
35 35 35 34 34 34 34 35 36 36 37 37 37 38 39 40 41 42 43 46 48 50 52 53 54 54 55 56 58 60 61 60 56 47 37 31 31 32 29 24 22 21 21 22 22 22 21 20 18 16 16 16 17 18 18 18 19 20 21 21 21 20 19 19 19 19 19 19 19 20 20 20 21 21 21 22 23 24 25 26 27 28 29 31 32
36 35 35 35 34 34 35 35 36 37 37 37 37 38 38 39 40 42 43 45 48 50 51 52 53 54 54 56 58 60 60 59 54 46 37 31 30 31 30 27 23 22 21 22 22 23 22 21 20 19 18 17 17 17 18 18 19 20 21 22 22 22 21 21 20 20 20 20 20 20 20 21 21 22 22 23 24 25 26 27 28 29 30 31 32
37 36 36 36 35 35 35 36 36 37 37 37 37 37 38 39 40 41 43 45 47 49 51 52 53 53 53 55 57 59 59 57 52 45 37 32 30 31 31 29 26 24 22 22 22 23 23 23 22 21 20 19 18 18 18 18 19 20 21 23 23 23 23 23 22 22 22 21 21 21 21 21 21 22 23 24 24 25 26 27 28 30 31 32 33
37 37 37 36 36 36 36 36 37 37 37 37 36 37 38 38 40 41 43 45 47 49 50 51 52 52 53 54 57 58 57 54 49 42 36 32 31 31 31 30 28 26 24 23 22 22 23 24 24 23 22 22 21 20 19 20 20 21 22 23 24 24 24 24 24 24 23 23 22 22 22 22 22 23 23 24 25 26 27 28 29 30 31 32 33
38 38 38 37 37 36 36 37 37 37 37 37 37 37 37 38 39 41 43 45 46 48 49 50 50 51 52 53 56 57 55 51 46 40 35 32 31 31 31 31 30 28 26 25 24 23 22 23 24 24 24 24 23 22 22 21 22 22 23 24 25 25 25 25 25 25 25 24 24 23 23 23 23 23 24 24 25 26 27 29 30 31 32 33 34
Wind_Direction
224 238 248 249 250 250 249 248 247 247 248 250 252 252 253 254 256 257 256 255 254 253 253 254 255 255 256 256 256 256 257 258 260 260 259 257 256 256 256 258 259 260 261 262 263 263 264 264 264 265 266 267 269 270 271 271 271 270 269 269 269 269 270 270 270 270 270 271 271 271 271 271 270 270 270 270 271 271 272 272 273 273 274 274 275
221 234 247 255 258 258 258 257 256 256 255 254 254 254 254 255 255 256 255 255 254 253 253 254 255 255 256 256 255 254 255 257 259 260 259 257 256 257 257 258 259 259 261 262 263 265 266 266 267 268 269 270 270 272 273 273 272 271 271 270 270 270 270 270 270 270 270 271 271 271 272 272 272 272 272 272 272 272 273 273 273 273 274 274 274
234 240 250 259 259 258 260 260 261 263 262 260 258 257 258 258 258 258 258 257 256 255 254 254 255 255 256 255 254 254 254 254 256 257 258 257 257 258 258 258 258 259 261 263 265 268 268 268 269 269 269 270 272 273 274 273 272 272 272 272 272 272 272 272 272 272 271 271 271 272 272 272 273 273 273 274 274 274 274 274 274 274 274 274 274
275 269 271 276 273 269 265 263 263 264 264 263 262 261 262 262 263 264 264 264 264 262 261 260 259 258 257 257 256 255 255 255 255 256 256 257 258 259 259 259 260 261 263 264 264 264 264 264 264 265 266 268 270 271 271 271 271 271 271 271 271 271 271 271 272 272 271 270 270 270 271 271 272 272 272 273 274 274 275 275 276 276 276 277 277
306 298 290 288 285 282 276 271 269 268 267 267 265 264 264 264 264 265 265 266 266 265 265 265 264 264 262 261 260 259 259 259 259 259 259 260 260 261 261 261 261 261 262 262 262 262 262 263 264 265 267 268 269 269 269 269 269 269 269 269 269 269 269 270 271 271 270 269 269 270 270 271 271 272 273 273 274 275 275 276 276 277 277 278 278
313 306 299 294 289 285 281 277 274 272 270 268 266 265 265 264 265 265 265 266 265 265 265 264 264 264 262 261 259 259 258 258 258 259 260 261 261 262 262 261 261 261 262 263 263 264 264 264 265 266 267 267 268 268 269 269 269 269 270 270 270 270 271 271 271 271 271 271 271 271 271 272 273 273 274 275 276 277 277 277 277 278 279 279 280
329 318 313 307 300 294 289 285 282 279 276 274 273 271 269 268 267 266 266 266 266 266 266 265 265 264 264 263 262 261 260 259 259 260 261 262 263 263 263 263 263 263 264 264 265 265 265 266 266 266 267 267 268 268 268 269 269 270 270 270 271 271 271 272 272 273 273 273 273 274 274 274 274 275 276 277 278 279 279 278 279 280 280 280 281
341 329 321 316 311 305 300 295 291 288 285 282 281 280 279 276 274 272 270 269 269 268 268 267 267 266 266 266 266 266 265 265 264 264 263 264 264 264 264 264 264 264 265 265 265 266 266 267 267 267 267 268 268 268 268 269 269 269 270 270 271 272 273 273 274 275 275 276 276 276 276 275 276 276 277 278 279 279 278 279 279 280 279 280 281
339 329 320 314 310 306 303 299 295 291 288 285 284 283 282 282 280 279 278 276 275 274 273 272 272 271 270 269 269 269 269 269 269 268 267 267 266 266 266 265 265 265 265 265 266 266 266 266 267 267 267 267 268 268 268 268 269 269 270 271 272 273 274 275 275 276 276 276 276 276 276 276 277 277 277 278 278 277 277 278 278 278 279 280 280
337 328 320 312 306 301 298 296 295 292 290 287 284 282 281 281 280 280 280 280 279 278 277 277 276 275 275 274 274 273 273 272 272 271 270 269 269 268 267 267 267 266 266 266 266 266 266 266 266 267 267 268 268 268 268 269 269 269 270 272 273 274 274 275 276 276 276 276 276 276 276 277 276 276 277 277 277 277 277 278 278 278 279 279 279
332 324 316 309 304 299 295 292 290 289 288 287 285 283 281 280 279 278 278 279 279 279 279 279 278 277 277 276 276 275 275 274 274 273 272 271 270 269 269 268 268 267 267 267 267 267 267 267 267 267 268 268 268 268 269 269 270 270 271 272 273 273 274 275 275 275 275 275 276 276 277 276 276 276 277 277 276 277 277 278 278 278 278 279 279
329 321 313 306 301 297 294 291 289 287 286 285 284 283 282 281 280 279 278 278 277 277 278 278 278 278 278 278 278 277 276 275 274 274 273 272 271 271 270 270 270 269 269 269 269 269 269 269 268 268 268 268 268 268 269 269 270 270 271 271 272 273 274 274 274 274 275 275 276 276 276 276 276 276 276 276 276 277 277 278 278 278 279 280 280
336 328 320 313 306 300 296 293 290 288 287 285 284 283 282 282 281 280 280 279 279 278 278 278 277 277 277 278 278 278 278 277 276 275 274 273 272 271 271 271 271 271 271 270 270 270 269 269 269 269 269 269 269 269 269 269 269 270 270 271 271 272 273 273 273 274 274 275 275 276 275 275 276 276 276 276 277 277 277 278 278 279 280 281 282
348 342 337 330 322 314 307 302 297 293 291 290 289 287 286 285 284 283 282 282 281 281 281 280 280 280 279 279 279 279 278 278 277 276 275 275 273 272 272 271 271 271 271 270 270 270 270 269 269 269 269 269 269 269 270 270 270 270 270 270 271 271 271 272 272 273 273 274 274 274 274 275 275 275 276 276 276 277 277 278 279 280 282 283 284
358 354 351 346 340 334 327 320 313 307 302 298 296 294 293 292 291 290 288 287 286 285 285 285 284 284 284 284 283 283 282 281 280 278 277 276 275 274 273 272 272 271 271 270 270 270 270 269 269 269 269 269 269 269 269 269 270 270 270 270 270 270 271 271 271 272 272 272 272 272 273 273 274 274 275 276 276 277 278 279 280 281 283 284 285
4 2 359 357 353 349 344 338 333 326 319 313 308 304 301 299 297 296 294 293 291 289 288 287 287 287 286 285 285 285 284 283 282 281 279 278 277 276 275 274 273 273 272 272 271 271 270 270 270 269 269 269 269 269 269 269 269 269 269 269 269 269 269 270 270 271 271 271 271 271 272 273 273 274 275 275 276 277 278 279 280 282 283 284 286
8 7 5 4 2 359 355 351 348 344 339 335 330 325 319 313 308 304 301 299 296 294 291 289 287 287 286 285 285 284 283 283 282 281 280 279 278 277 276 275 275 274 273 273 273 272 272 271 271 271 271 271 271 270 270 270 269 269 268 268 268 268 268 268 268 268 269 269 270 270 271 272 273 274 275 275 276 277 278 280 281 282 284 285 285
13 11 10 9 8 6 4 2 360 358 355 351 347 343 338 332 326 321 316 311 307 303 298 294 291 289 287 285 284 284 284 283 283 282 281 280 280 279 278 277 277 276 276 275 275 274 274 273 273 272 272 272 272 272 272 272 272 271 270 269 268 267 267 266 266 267 267 268 268 269 270 271 272 273 274 275 276 277 279 280 281 282 284 285 285
16 16 14 13 12 11 10 8 4 1 357 353 350 349 347 342 337 332 329 325 322 318 312 305 299 294 292 290 289 288 288 287 286 285 284 283 283 282 281 281 280 280 279 278 278 277 276 275 275 274 274 273 273 273 273 273 273 272 271 271 270 268 267 267 267 266 267 267 267 268 269 270 271 273 274 275 276 278 279 280 282 283 284 285 285
16 19 19 18 15 13 11 8 3 358 354 351 350 350 351 349 344 339 334 331 331 331 329 323 315 307 302 300 298 296 294 292 289 287 286 285 285 284 284 283 283 282 282 281 280 279 278 277 277 276 275 275 274 274 273 273 272 271 271 271 270 269 269 269 268 267 267 267 267 267 268 269 270 272 273 275 276 278 279 281 282 284 284 285 286
14 17 20 21 19 16 12 7 3 358 355 352 350 349 349 348 347 345 340 337 336 337 338 336 331 324 317 311 307 303 300 297 295 292 290 289 288 287 287 287 287 286 286 285 284 283 281 280 279 278 278 277 276 275 274 273 271 270 270 269 268 268 269 269 268 268 267 267 266 266 267 268 269 271 272 275 276 278 280 281 283 284 284 285 286
12 15 17 20 21 20 18 14 10 6 2 358 355 351 349 347 347 345 344 342 341 340 340 339 337 334 329 324 318 313 308 304 300 297 295 293 292 291 290 290 290 290 290 290 289 287 285 283 282 282 281 280 279 277 276 274 272 270 268 267 267 267 267 267 267 267 268 267 267 266 266 267 268 270 272 274 276 278 280 281 282 283 284 285 286
9 12 14 16 17 18 18 17 15 14 11 8 5 2 358 355 353 350 348 347 345 344 342 340 338 336 333 330 326 322 317 312 307 301 297 295 293 292 291 291 292 292 292 291 290 289 287 285 284 283 283 282 281 280 278 276 274 272 269 267 266 266 266 265 265 265 266 267 267 266 265 266 267 269 271 274 276 278 280 281 282 283 284 285 286
5 8 10 12 13 14 15 14 13 12 11 10 9 7 4 2 359 357 356 354 352 349 347 344 341 338 334 330 326 323 320 317 313 308 302 297 293 291 290 290 291 291 291 291 290 289 288 286 286 285 285 285 284 283 281 278 275 272 269 267 266 265 265 264 264 263 263 265 266 266 265 266 267 269 271 273 276 277 279 281 282 282 283 285 286
358 2 4 6 7 8 10 10 10 9 7 6 6 5 4 2 0 359 358 357 355 353 351 348 345 342 338 333 328 323 319 316 313 312 309 305 299 294 290 289 289 290 290 290 291 291 291 290 289 290 289 289 289 286 283 279 275 271 268 266 264 264 264 264 264 263 262 262 263 265 265 266 267 269 271 273 275 277 278 280 280 282 283 285 286
350 354 357 359 1 1 3 4 5 5 4 4 3 2 1 1 -0 359 358 357 355 354 352 350 348 346 343 338 333 328 322 316 312 309 308 308 306 301 296 291 289 290 290 290 291 293 294 293 294 294 295 295 294 291 286 281 277 272 268 264 262 261 262 264 265 264 263 261 261 263 264 266 267 269 270 272 274 276 277 278 280 282 283 285 286
341 345 349 352 353 354 356 357 357 358 359 359 359 358 357 357 357 357 356 355 354 353 351 349 348 346 344 341 338 333 327 320 313 307 304 304 305 305 302 297 292 290 289 290 291 293 295 296 296 298 300 301 301 298 292 286 280 273 266 261 258 258 260 262 264 264 263 262 261 262 264 265 266 268 269 271 273 274 275 278 280 282 283 285 287
331 335 339 343 346 348 349 350 351 352 353 353 353 353 352 352 352 353 353 352 352 351 350 348 347 345 344 342 340 336 332 324 316 308 303 300 300 302 303 300 295 291 290 290 290 292 295 297 298 299 302 305 306 304 298 290 282 273 263 257 255 255 258 261 263 263 264 264 263 263 263 263 265 266 268 269 271 273 276 278 280 281 284 286 287
322 325 329 333 337 340 343 344 345 346 347 348 348 349 348 348 348 349 349 349 349 349 348 347 346 345 344 343 341 339 335 329 320 310 303 298 296 298 301 301 297 293 291 290 290 291 295 298 299 300 303 307 309 308 303 294 283 273 263 256 254 255 257 260 262 262 263 262 261 259 259 260 262 264 266 268 271 274 276 278 280 282 284 286 286
315 318 321 324 328 332 335 338 340 341 342 343 344 344 345 345 346 347 347 347 347 347 346 346 345 345 344 344 343 341 338 333 324 313 304 297 294 293 297 300 299 295 292 290 289 290 293 297 300 302 304 306 308 309 308 301 289 275 263 254 251 250 252 254 255 255 255 254 254 255 256 258 261 263 267 269 272 274 277 279 281 283 284 285 287
310 312 314 317 320 324 328 331 334 336 337 339 340 341 341 342 343 343 344 345 346 346 345 345 345 344 344 344 344 343 340 336 329 319 308 298 294 291 293 298 298 295 292 290 289 290 291 294 298 301 303 305 305 307 307 305 297 286 272 260 253 249 249 249 249 250 251 252 253 255 257 260 263 265 268 270 273 276 278 279 280 281 283 286 288
307 308 309 312 315 318 321 325 328 330 332 334 336 337 338 339 340 341 341 342 343 344 345 344 344 344 344 345 345 345 342 338 332 326 315 303 295 291 291 295 297 294 291 290 290 290 290 291 293 297 300 302 304 304 304 303 300 294 285 275 266 259 254 253 252 252 253 253 255 258 260 262 265 267 269 273 275 276 277 277 279 282 285 287 290
304 305 306 308 310 313 317 320 323 325 327 329 331 333 335 337 338 338 339 340 341 343 343 344 344 344 344 345 346 346 344 340 335 330 322 310 299 293 291 293 296 294 291 291 292 291 288 287 288 290 293 297 299 301 301 299 296 291 284 276 269 263 258 256 255 255 256 257 259 261 262 265 267 270 272 273 274 275 276 278 281 284 287 290 293
302 303 304 305 307 310 313 316 318 321 323 325 327 329 332 334 335 336 337 338 340 341 342 343 343 344 344 345 346 347 346 342 338 334 328 317 305 297 292 294 296 293 290 291 294 292 287 284 284 286 287 290 292 293 293 292 289 285 279 274 269 266 262 260 260 260 260 261 262 264 266 268 269 271 271 272 273 275 278 281 284 287 290 292 294
300 301 303 304 306 308 311 313 315 317 319 322 324 326 328 331 333 334 334 335 337 339 341 342 343 343 344 345 347 348 347 344 341 337 332 323 312 302 296 295 297 294 291 292 295 293 286 282 283 284 285 285 286 287 288 287 286 284 280 276 273 271 268 266 265 264 265 265 266 267 268 268 269 270 271 272 275 277 280 283 286 288 291 293 296
299 300 302 303 305 307 308 310 312 315 317 319 321 323 325 328 331 332 333 333 335 337 339 341 342 343 344 345 346 348 348 346 343 340 336 328 318 309 301 299 299 296 291 292 295 293 287 282 282 283 283 283 283 283 284 285 286 286 284 280 276 274 271 269 268 268 268 268 267 267 267 267 269 270 272 274 276 278 281 284 287 290 293 296 298
298 299 300 302 304 306 307 309 311 313 316 317 319 321 323 326 329 331 332 332 333 335 338 340 342 343 344 345 346 348 348 347 344 342 339 332 323 314 307 303 302 297 293 294 297 293 287 283 283 283 282 281 280 280 282 284 286 285 283 280 278 276 275 273 271 269 268 266 266 266 267 268 269 271 272 275 277 280 283 286 289 292 295 298 300
299 299 299 301 303 304 306 308 310 312 314 316 317 319 322 325 327 329 330 331 332 334 336 338 341 342 343 344 346 347 348 348 345 343 340 336 327 318 311 307 303 299 297 300 300 293 287 285 284 281 280 279 279 280 282 283 284 285 285 286 285 283 279 276 272 268 266 265 265 266 267 268 270 272 274 276 279 282 285 288 292 295 298 300 302
299 298 299 300 302 304 305 307 309 311 313 315 316 318 321 323 326 328 329 329 330 332 335 337 339 341 342 344 345 347 348 348 346 343 341 338 330 320 314 311 305 299 300 304 301 292 287 284 281 278 278 281 283 286 286 286 287 290 290 288 285 281 277 273 270 268 267 267 267 268 269 271 272 274 276 279 282 285 289 292 296 299 301 302 303
298 298 298 300 301 303 304 306 308 310 312 314 316 317 320 322 324 327 328 328 329 331 333 336 338 340 341 343 345 346 347 347 346 343 341 339 333 323 316 313 307 300 298 301 298 289 282 278 274 275 279 284 287 288 289 290 291 290 288 284 280 276 273 272 271 271 271 271 271 273 274 275 277 278 281 284 287 290 294 297 299 301 302 303 304
296 297 297 298 300 302 303 305 307 309 311 313 315 317 319 321 324 326 327 328 328 330 333 335 337 339 341 342 344 345 346 347 345 342 340 339 335 326 317 313 309 302 295 292 290 284 276 272 273 277 282 285 289 291 292 292 290 286 283 280 277 275 274 274 274 274 275 276 277 278 279 281 283 285 287 290 292 295 298 300 301 303 304 305 306
294 294 295 296 298 300 302 304 306 308 310 312 314 316 319 321 323 325 326 327 328 330 332 335 337 339 340 341 343 344 346 346 345 342 338 337 335 328 318 313 310 304 295 287 283 280 275 274 278 283 286 288 291 294 293 291 285 279 275 275 275 274 275 275 276 278 279 280 281 283 284 286 288 290 293 295 297 299 300 301 303 304 305 306 308
291 292 293 295 297 299 301 303 305 307 309 311 314 316 318 321 323 324 326 326 327 329 332 335 337 338 340 340 342 344 345 345 345 341 336 335 335 329 319 311 310 305 296 285 279 276 277 278 282 286 288 289 291 292 291 287 281 275 271 271 271 272 273 274 277 280 281 282 284 285 287 290 292 294 296 298 299 300 301 302 304 305 306 308 309
289 290 291 293 295 297 299 302 304 306 308 311 313 316 318 320 323 324 325 326 327 329 332 334 337 338 339 340 341 343 344 345 344 341 335 333 333 329 319 310 308 306 296 285 277 273 273 274 277 281 285 288 289 289 287 284 279 274 271 269 268 269 271 274 277 279 280 281 283 285 288 290 293 295 296 298 299 300 302 303 304 306 307 308 310
288 288 290 291 293 296 298 301 303 305 308 310 313 315 318 320 322 324 324 325 327 329 332 335 337 338 339 340 341 343 344 344 344 340 334 330 331 329 320 309 307 306 297 285 278 274 272 272 274 277 282 286 288 287 284 281 277 274 272 269 268 269 271 274 276 278 279 280 282 285 287 290 292 294 295 297 298 300 301 302 304 305 307 308 310
286 287 288 289 292 294 297 299 302 304 307 310 312 315 317 320 322 323 324 325 327 329 332 335 337 338 339 340 342 343 344 344 344 340 333 328 329 329 322 310 304 304 299 289 281 276 273 272 273 276 280 285 287 286 283 279 277 274 271 270 269 270 272 274 276 277 279 280 282 284 287 289 291 293 294 296 298 299 301 302 304 305 306 308 310
284 285 286 288 290 293 296 298 300 303 306 309 312 314 317 319 321 322 323 325 327 329 332 335 337 338 339 341 342 343 344 344 344 340 333 327 328 330 325 314 303 301 301 295 287 281 276 272 271 274 277 281 285 285 282 278 277 275 273 272 272 272 273 274 275 276 277 279 282 284 287 289 291 293 295 296 298 300 301 302 303 304 306 308 310
283 283 284 286 289 291 294 297 299 302 305 308 311 314 317 318 320 321 323 324 327 330 332 335 336 338 340 342 343 344 344 345 344 340 334 328 327 330 328 320 307 299 299 299 295 289 283 276 271 269 272 275 279 282 281 278 276 276 275 274 274 274 274 274 274 274 275 277 279 282 285 288 291 293 295 297 299 300 302 303 304 305 306 308 309
282 282 283 285 287 290 293 296 299 301 304 308 311 314 316 318 319 321 322 324 327 330 332 334 336 338 340 342 344 345 345 345 344 340 334 328 327 330 331 327 315 303 297 299 299 296 291 283 275 268 267 268 272 276 278 278 277 276 275 275 275 275 275 275 275 275 275 276 278 281 284 287 290 293 295 297 299 301 302 303 304 304 305 307 309
283 282 282 284 286 289 292 295 298 301 304 307 311 313 315 316 318 320 322 325 327 330 332 334 336 338 340 342 344 345 345 345 343 339 333 329 328 329 331 331 324 312 300 296 298 299 296 290 283 274 268 266 269 272 275 277 277 276 275 274 274 274 274 275 276 276 276 277 279 281 284 287 291 294 296 298 300 301 302 303 304 304 305 307 309
284 283 282 283 285 288 291 294 297 300 303 306 309 311 313 315 317 319 321 324 327 330 332 333 335 337 340 342 344 345 346 345 342 338 332 329 328 329 330 331 330 322 309 298 295 296 297 294 289 281 274 271 271 274 276 276 276 275 274 273 272 272 273 274 275 276 278 279 281 283 286 289 292 295 297 299 301 302 304 304 305 305 306 308 309